Weather History for LKPO - July, 2013

Change the Weather History Date:

Sunday, July 21, 2013

  Actual Average Record
Temperature  
Mean Temperature 64 °F -  
Max Temperature 77 °F - - ()
Min Temperature 51 °F - - ()
Degree Days  
Heating Degree Days 1    
Growing Degree Days 14 (Base 50)    
Moisture  
Dew Point 50 °F    
Average Humidity 61    
Maximum Humidity 88    
Minimum Humidity 38    
Precipitation  
Precipitation 0.00 in - - ()
Sea Level Pressure  
Sea Level Pressure 30.16 in    
Wind  
Wind Speed 4 mph ()    
Max Wind Speed 13 mph    
Max Gust Speed 17 mph    
Visibility 6.2 miles    
Events      
T = Trace of Precipitation, MM = Missing Value Source: Averaged Metar Reports

Daily Weather History Graph

Daily Weather History Graph

Search for Another Location

Airport or City:

Trip Planner

Search our weather history database for the weather conditions in past years. The results will help you decide how hot, cold, wet, or windy it might be!

Date:

Astronomy

Jul. 21, 2013 Rise Set
Actual Time 5:07 AM CEST 8:45 PM CEST
Civil Twilight 4:27 AM CEST 9:25 PM CEST
Nautical Twilight 3:32 AM CEST 10:19 PM CEST
Astronomical Twilight 2:14 AM CEST 11:36 PM CEST
Moon 7:24 PM CEST (7/21) 3:34 AM CEST (7/21)
Length of Visible Light 16h 58m
Length of Day
15h 37m
Waxing Gibbous, 97% of the Moon is Illuminated
Jul 21
Waxing Gibbous
Jul 22
Full
Jul 29
Last Quarter
Aug 6
New
Aug 14
First Quarter

Hourly Weather History & Observations

Time (CEST) Temp. Dew Point Humidity Pressure Visibility Wind Dir Wind Speed Gust Speed Precip Events Conditions
12:00 AM 59.0 °F 50.0 °F 72% 30.12 in - North 3.5 mph - N/A   Clear
1:00 AM 55.4 °F 50.0 °F 82% 30.15 in - NNE 5.8 mph - N/A   Clear
2:00 AM 57.2 °F 50.0 °F 77% 30.15 in - North 2.3 mph - N/A   Clear
3:00 AM 51.8 °F 48.2 °F 88% 30.15 in - West 2.3 mph - N/A   Clear
4:00 AM 53.6 °F 50.0 °F 88% 30.15 in - Calm Calm - N/A   Clear
5:00 AM 51.8 °F 48.2 °F 88% 30.15 in - Calm Calm - N/A   Clear
6:00 AM 51.8 °F 48.2 °F 88% 30.18 in - Calm Calm - N/A   Clear
7:00 AM 57.2 °F 51.8 °F 82% 30.18 in - Calm Calm - N/A   Clear
8:00 AM 60.8 °F 53.6 °F 77% 30.18 in - Calm Calm - N/A   Clear
9:00 AM 66.2 °F 51.8 °F 60% 30.18 in - Variable 1.2 mph - N/A   Clear
10:00 AM 69.8 °F 50.0 °F 49% 30.18 in 6.2 mi Variable 2.3 mph - N/A   Partly Cloudy
11:00 AM 73.4 °F 50.0 °F 44% 30.18 in - NE 12.7 mph - N/A   Clear
12:00 PM 73.4 °F 50.0 °F 44% 30.18 in - ENE 10.4 mph - N/A   Clear
1:00 PM 75.2 °F 48.2 °F 38% 30.18 in - NE 6.9 mph 17.3 mph N/A   Clear
2:00 PM 75.2 °F 48.2 °F 38% 30.18 in - ENE 10.4 mph - N/A   Clear
3:00 PM 77.0 °F 51.8 °F 41% 30.15 in - ENE 12.7 mph - N/A   Clear
4:00 PM 77.0 °F 50.0 °F 39% 30.15 in - ENE 12.7 mph - N/A   Clear
5:00 PM 77.0 °F 50.0 °F 39% 30.15 in - ENE 11.5 mph - N/A   Clear
6:00 PM 77.0 °F 51.8 °F 41% 30.15 in - ENE 10.4 mph - N/A   Clear
7:00 PM 75.2 °F 51.8 °F 44% 30.12 in - ENE 10.4 mph - N/A   Clear
8:00 PM 71.6 °F 51.8 °F 50% 30.12 in - East 6.9 mph - N/A   Clear
9:00 PM 66.2 °F 51.8 °F 60% 30.15 in - ENE 5.8 mph - N/A   Clear
10:00 PM 62.6 °F 51.8 °F 68% 30.15 in - Calm Calm - N/A   Clear
11:00 PM 59.0 °F 51.8 °F 77% 30.15 in - West 2.3 mph - N/A   Clear